Вернуться в каталог

DMSP 5D-2 F13 DEB

АктивенPO
NORAD 40480·DEBRIS·🇺🇸 United States

Запущен Mar 24, 1995 с Vandenberg Space Force Base

Loading…

Ближайшие Пролёты (ближайшие 24 часа)

TLE

УстаревающийSource: Space-Track

Эпоха: Sep 10, 2026, 09:43 UTC

1 40480U 95015BY  26253.40547300  .00014423  00000-0  28988-2 0  9998
2 40480  98.7174 216.3442 0038853  87.5680 272.9967 14.61247015593311

Отслеживайте DMSP 5D-2 F13 DEB в реальном времени с AllMySat

Download on the App Store